Greenville, ME

3:55 PM EDT on October 17, 2017 (GMT -0400)
Greenville

Weather History for KGNR - September, 2013

Change the Weather History Date:

Monday, September 16, 2013

  Actual Average (KMLT) Record (KMLT)
Temperature  
Mean Temperature 47 °F -  
Max Temperature 54 °F 66 °F 93 °F (1939)
Min Temperature 39 °F 44 °F 28 °F (1959)
Degree Days  
Heating Degree Days 18    
Moisture  
Dew Point 41 °F    
Average Humidity 78    
Maximum Humidity 96    
Minimum Humidity 60    
Precipitation  
Precipitation 0.17 in - - ()
Sea Level Pressure  
Sea Level Pressure 30.04 in    
Wind  
Wind Speed 4 mph (NNW)    
Max Wind Speed 14 mph    
Max Gust Speed 25 mph    
Averages and records for this station are not official NWS values.
T = Trace of Precipitation, MM = Missing Value Source: NWS Daily Summary

Daily Weather History Graph

Daily Weather History Graph

Search for Another Location

Airport or City:

Trip Planner

Search our weather history database for the weather conditions in past years. The results will help you decide how hot, cold, wet, or windy it might be!

Date:

Astronomy

Sep. 16, 2013 Rise Set
Actual Time 6:18 AM EDT 6:47 PM EDT
Civil Twilight 5:48 AM EDT 7:16 PM EDT
Nautical Twilight 5:13 AM EDT 7:51 PM EDT
Astronomical Twilight 4:36 AM EDT 8:28 PM EDT
Moon 4:59 PM EDT (9/16) 2:53 AM EDT (9/16)
Length of Visible Light 13h 28m
Length of Day
12h 28m
Waxing Gibbous, 90% of the Moon is Illuminated
Sep 16
Waxing Gibbous
Sep 19
Full
Sep 26
Last Quarter
Oct 4
New
Oct 11
First Quarter

Hourly Weather History & Observations

Time (EDT) Temp. Windchill Dew Point Humidity Pressure Visibility Wind Dir Wind Speed Gust Speed Precip Events Conditions
12:56 AM 53.1 °F - 48.0 °F 83% 29.96 in - Calm Calm - N/A   Unknown
1:56 AM 53.1 °F - 46.9 °F 80% 29.94 in - Calm Calm - N/A   Unknown
2:56 AM 53.1 °F - 48.0 °F 83% 29.95 in - Calm Calm - N/A   Unknown
3:56 AM 52.0 °F - 48.9 °F 89% 29.94 in - Calm Calm - N/A   Unknown
4:56 AM 51.1 °F - 48.9 °F 92% 29.94 in - Calm Calm - 0.02 in   Unknown
5:56 AM 51.1 °F - 48.9 °F 92% 29.96 in - Calm Calm - 0.02 in   Unknown
6:56 AM 51.1 °F - 50.0 °F 96% 29.96 in - Calm Calm - 0.02 in   Unknown
7:56 AM 52.0 °F - 50.0 °F 93% 29.96 in - Calm Calm - 0.02 in   Unknown
8:56 AM 52.0 °F - 50.0 °F 93% 29.97 in - Variable 3.5 mph - 0.08 in   Unknown
9:56 AM 46.9 °F - 45.0 °F 93% 30.01 in - North 13.8 mph 21.9 mph 0.01 in   Unknown
10:56 AM 46.9 °F - 43.0 °F 86% 30.02 in - NNW 13.8 mph 19.6 mph N/A   Unknown
11:56 AM 46.0 °F 41.9 °F 42.1 °F 86% 30.04 in - NNW 8.1 mph - N/A   Unknown
12:56 PM 46.0 °F 40.6 °F 42.1 °F 86% 30.04 in - NNW 11.5 mph 17.3 mph N/A   Unknown
1:56 PM 48.0 °F - 39.0 °F 71% 30.04 in - NNW 10.4 mph 19.6 mph N/A   Unknown
2:56 PM 51.1 °F - 39.0 °F 63% 30.04 in - NW 8.1 mph 20.7 mph N/A   Unknown
3:56 PM 51.1 °F - 37.9 °F 61% 30.05 in - NW 9.2 mph - N/A   Unknown
4:56 PM 48.9 °F - 36.0 °F 61% 30.06 in - NW 9.2 mph 24.2 mph N/A   Unknown
5:56 PM 46.9 °F - 34.0 °F 61% 30.09 in - Variable 5.8 mph 19.6 mph N/A   Unknown
6:56 PM 45.0 °F 40.1 °F 34.0 °F 65% 30.12 in - NW 9.2 mph 21.9 mph N/A   Unknown
7:56 PM 45.0 °F 38.5 °F 35.1 °F 68% 30.15 in - NNW 13.8 mph 23.0 mph N/A   Unknown
8:56 PM 42.1 °F 35.7 °F 28.9 °F 60% 30.18 in - North 11.5 mph 25.3 mph N/A   Unknown
9:56 PM 41.0 °F 34.7 °F 30.9 °F 67% 30.20 in - NNW 10.4 mph 17.3 mph N/A   Unknown
10:56 PM 41.0 °F 34.7 °F 30.9 °F 67% 30.22 in - NNW 10.4 mph - N/A   Unknown
11:56 PM 39.9 °F 33.4 °F 32.0 °F 73% 30.24 in - NNW 10.4 mph 18.4 mph N/A   Unknown